Location: Unspecified
(0.0000°N, 0.0000°E)
Time: 22:41:03
(UTC+02:00)

Cosmos 2369 Rocket - Visible Passes

Search period start: 23 May 2017 00:00
Search period end: 02 June 2017 00:00
Orbit: 829 x 852 km, 71.0° (Epoch: 22 May)

Date Brightness Start Highest point End Pass type
(mag) Time Alt. Az. Time Alt. Az. Time Alt. Az.
23 May 4.2 21:06:16 10° NE 21:07:15 11° ENE 21:07:15 11° ENE visible
23 May 4.1 22:46:39 10° NNW 22:49:06 25° NW 22:49:06 25° NW visible
24 May 4.1 20:51:38 10° ENE 20:52:59 11° ENE 20:53:04 11° ENE visible
24 May 3.5 22:31:16 10° NNW 22:34:54 36° WNW 22:34:54 36° WNW visible
25 May 2.9 22:15:52 10° NNW 22:20:47 51° W 22:20:47 51° W visible
26 May 2.6 22:00:30 10° NNW 22:06:04 58° WSW 22:06:43 55° SW visible
27 May 2.5 21:45:08 10° NNW 21:50:45 63° WSW 21:52:42 40° SSW visible
28 May 2.4 21:29:47 10° NNW 21:35:25 69° WSW 21:38:45 25° S visible
29 May 2.4 21:14:25 10° NNW 21:20:05 74° WSW 21:24:49 15° S visible
30 May 2.3 20:59:05 10° NNW 21:04:46 80° WSW 21:10:29 10° SSE visible
31 May 2.3 20:43:45 10° NNW 20:49:26 86° WSW 20:55:10 10° SSE visible
01 Jun 2.2 20:28:26 10° NNW 20:34:07 87° ENE 20:39:50 10° SSE visible
